Location: Pandora
(40.9481°N, 83.9611°W)
Time: 04:56:23
(UTC-04:00)

ISS - Pass Details

Date: 29 September 2021
Orbit: 417 x 423 km, 51.6° (Epoch: 17 October)

Event Time Altitude Azimuth Distance (km) Brightness Sun altitude
Rises 22:02:34 0° 307° (NW) 2,365 1.2 -30.6°
Reaches altitude 10° 22:04:41 10° 311° (NW) 1,500 -0.1 -30.9°
Enters shadow 22:05:00 12° 312° (NW) 1,370 -0.4 -31.0°
